K4VI Weather Reports


Display with metric or nautical units.
time (UTC)temp
F
wind
direction
speed
MPH
gust
MPH
rain 1hr
in
rain 24hr
in
rain mn
in
humidity
%
barometer
mb
20260901082003 54 265 6.0 11.0 0.00 0.04 0.00 74 1041.1
20260901081503 54 266 6.0 11.0 0.00 0.04 0.00 74 1041.2
20260901081003 54 271 6.0 11.0 0.00 0.04 0.00 74 1041.1
20260901080503 54 275 5.0 12.0 0.00 0.04 0.00 74 1041.2
20260901080003 54 272 6.0 12.0 0.00 0.04 0.00 74 1041.2
20260901075717 54 274 6.0 12.0 0.00 0.04 0.00 74 1041.2
20260901075003 54 265 5.0 11.0 0.00 0.04 0.00 74 1041.4
20260901074503 54 253 4.0 9.0 0.00 0.04 0.00 75 1041.5
20260901074221 54 251 3.0 9.0 0.00 0.04 0.00 76 1041.5
20260901073719 54 255 3.0 8.0 0.00 0.04 0.00 76 1041.5
20260901073003 54 277 5.0 10.0 0.00 0.04 0.00 77 1041.4
20260901072503 54 278 7.0 14.0 0.00 0.04 0.00 76 1041.3
20260901072003 54 268 8.0 14.0 0.00 0.04 0.00 77 1041.3
20260901071503 54 267 7.0 14.0 0.00 0.04 0.00 76 1041.3
20260901071003 54 273 7.0 15.0 0.00 0.04 0.00 76 1041.2
20260901070503 54 273 6.0 15.0 0.00 0.04 0.00 77 1041.2
20260901070003 54 283 6.0 14.0 0.00 0.04 0.00 77 1041.3
20260901065718 54 292 6.0 14.0 0.00 0.04 0.00 77 1041.2
20260901065003 54 293 4.0 12.0 0.00 0.04 0.00 77 1041.4
20260901064503 54 278 3.0 9.0 0.00 0.04 0.00 77 1041.3
20260901064003 54 252 3.0 10.0 0.00 0.04 0.00 78 1041.3
20260901063503 54 271 3.0 10.0 0.00 0.04 0.00 78 1041.3
20260901063003 54 247 3.0 8.0 0.00 0.04 0.00 78 1041.4
20260901062721 54 229 2.0 8.0 0.00 0.04 0.00 79 1041.4
20260901062003 53 269 1.0 6.0 0.00 0.04 0.00 79 1041.5
20260901061717 53 262 1.0 6.0 0.00 0.04 0.00 79 1041.3
20260901061003 53 136 1.0 3.0 0.00 0.04 0.00 80 1041.2
20260901060503 53 137 1.0 4.0 0.00 0.04 0.00 80 1041.4
20260901060003 53 274 2.0 5.0 0.00 0.04 0.00 81 1041.3
20260901055503 53 310 1.0 5.0 0.00 0.04 0.04 80 1041.5
20260901055003 53 61 0.0 2.0 0.00 0.04 0.04 82 1041.5
20260901054503 53 79 0.0 2.0 0.00 0.04 0.04 81 1041.6
20260901054003 53 94 0.0 2.0 0.00 0.04 0.04 80 1041.7
20260901053504 53 101 1.0 6.0 0.00 0.04 0.04 80 1041.8
20260901053219 53 99 2.0 6.0 0.00 0.04 0.04 80 1041.8
20260901052503 53 35 1.0 6.0 0.00 0.04 0.04 81 1041.8
20260901052004 53 262 1.0 4.0 0.00 0.04 0.04 81 1041.9
20260901051503 53 195 2.0 6.0 0.00 0.04 0.04 81 1041.9
20260901051003 53 193 2.0 6.0 0.00 0.04 0.04 80 1041.9
20260901050503 53 242 1.0 3.0 0.00 0.04 0.04 81 1041.8
20260901050003 52 240 1.0 3.0 0.01 0.04 0.04 83 1041.8
20260901045503 52 235 1.0 3.0 0.02 0.04 0.04 84 1041.9
20260901045003 52 237 1.0 3.0 0.02 0.04 0.04 85 1042.0
20260901044505 52 254 1.0 3.0 0.02 0.04 0.04 85 1041.9
20260901044003 52 254 1.0 3.0 0.02 0.04 0.04 85 1041.9
20260901043503 52 254 0.0 1.0 0.02 0.04 0.04 81 1041.9
20260901043003 52 254 0.0 3.0 0.02 0.04 0.04 82 1041.9
20260901042503 52 254 0.0 3.0 0.02 0.04 0.04 85 1042.0
20260901042003 52 254 0.0 1.0 0.02 0.04 0.04 86 1042.0
20260901041503 52 254 0.0 2.0 0.02 0.04 0.04 84 1041.9
20260901041003 53 296 1.0 3.0 0.02 0.04 0.04 83 1042.1
20260901040503 53 307 1.0 3.0 0.02 0.04 0.04 82 1042.0
20260901040003 53 359 1.0 4.0 0.01 0.03 0.03 80 1042.1
20260901035503 53 17 1.0 4.0 0.00 0.02 0.02 79 1041.8
20260901035003 53 27 1.0 2.0 0.00 0.02 0.02 77 1041.9
20260901034503 53 27 1.0 3.0 0.00 0.02 0.02 77 1041.7
20260901034219 53 27 1.0 3.0 0.00 0.02 0.02 76 1041.8
20260901033503 53 24 1.0 3.0 0.00 0.02 0.02 77 1041.7
20260901033003 53 24 0.0 2.0 0.00 0.02 0.02 76 1041.8
20260901032503 53 24 0.0 1.0 0.00 0.02 0.02 76 1041.7
20260901032003 53 24 0.0 1.0 0.00 0.02 0.02 75 1041.7
20260901031718 53 13 0.0 2.0 0.00 0.02 0.02 75 1041.7
20260901031217 53 355 0.0 2.0 0.00 0.02 0.02 76 1041.7
20260901030503 53 346 0.0 2.0 0.00 0.02 0.02 75 1041.6
20260901030217 53 346 0.0 2.0 0.00 0.02 0.02 75 1041.5
20260901025720 53 346 0.0 2.0 0.00 0.02 0.02 75 1041.4
20260901025003 53 346 0.0 1.0 0.00 0.02 0.02 76 1041.5
20260901024503 53 346 0.0 1.0 0.00 0.02 0.02 76 1041.6
20260901024003 53 348 0.0 3.0 0.00 0.03 0.02 77 1041.6
20260901023503 53 355 1.0 3.0 0.00 0.04 0.02 77 1041.7
20260901023220 54 1 1.0 3.0 0.00 0.04 0.02 78 1041.6
20260901022503 54 12 1.0 3.0 0.00 0.04 0.02 78 1041.8
20260901022221 54 21 1.0 3.0 0.00 0.04 0.02 78 1041.8
20260901021503 55 105 0.0 1.0 0.00 0.05 0.02 77 1041.8
20260901021003 55 121 1.0 6.0 0.00 0.05 0.02 75 1042.0
20260901020720 55 118 2.0 6.0 0.00 0.05 0.02 74 1041.9
20260901020003 56 130 2.0 6.0 0.00 0.05 0.02 72 1041.9
20260901015503 57 265 2.0 5.0 0.00 0.05 0.02 68 1041.5
20260901015219 58 295 2.0 6.0 0.00 0.05 0.02 66 1041.6
20260901014503 58 307 3.0 8.0 0.00 0.05 0.02 61 1041.4
20260901014220 58 309 3.0 8.0 0.00 0.05 0.02 61 1041.4
20260901013718 57 311 4.0 10.0 0.00 0.05 0.02 62 1041.3
20260901013003 57 316 6.0 10.0 0.00 0.05 0.02 64 1041.1
20260901012503 57 316 7.0 11.0 0.00 0.05 0.02 65 1041.1
20260901012217 56 314 7.0 11.0 0.00 0.05 0.02 67 1041.0
20260901011503 56 314 7.0 11.0 0.00 0.05 0.02 68 1041.1
20260901011003 56 315 6.0 10.0 0.01 0.05 0.02 70 1041.2
20260901010503 55 316 6.0 10.0 0.01 0.05 0.02 72 1041.2
20260901010219 54 313 7.0 11.0 0.01 0.05 0.02 75 1041.3
20260901005503 54 318 8.0 15.0 0.01 0.05 0.02 81 1041.4
20260901005003 54 319 10.0 16.0 0.01 0.05 0.02 81 1041.3
20260901004503 54 317 9.0 16.0 0.01 0.05 0.02 81 1041.4
20260901004003 54 314 9.0 15.0 0.01 0.05 0.02 81 1041.6
20260901003503 54 316 9.0 16.0 0.01 0.05 0.02 81 1041.6
20260901003003 54 318 10.0 19.0 0.01 0.05 0.02 81 1041.4
20260901002503 54 315 10.0 19.0 0.01 0.05 0.02 80 1041.5
20260901002218 55 315 10.0 19.0 0.01 0.05 0.02 79 1041.5
20260901001503 57 315 9.0 17.0 0.01 0.05 0.02 75 1041.6
20260901001003 59 315 7.0 17.0 0.00 0.04 0.01 70 1041.4
20260901000503 61 306 6.0 13.0 0.00 0.04 0.01 64 1041.3
20260901000219 62 304 7.0 15.0 0.00 0.04 0.01 60 1041.4
20260831235717 65 289 5.0 15.0 0.00 0.04 0.01 51 1040.9
20260831235003 66 216 2.0 10.0 0.00 0.04 0.01 44 1040.7
20260831234503 67 156 1.0 5.0 0.00 0.04 0.01 44 1040.6
20260831234221 67 141 2.0 4.0 0.00 0.04 0.01 43 1040.4
20260831233503 67 111 3.0 8.0 0.00 0.04 0.01 43 1040.3
20260831233003 67 108 3.0 6.0 0.00 0.04 0.01 42 1040.3
20260831232503 68 110 3.0 9.0 0.00 0.04 0.01 43 1040.2
20260831232003 68 107 5.0 12.0 0.00 0.04 0.01 42 1040.3
20260831231503 68 100 7.0 12.0 0.00 0.04 0.01 42 1040.2
20260831231003 68 101 5.0 11.0 0.00 0.04 0.01 41 1040.3
20260831230504 68 110 5.0 9.0 0.00 0.04 0.01 42 1040.2
20260831230003 68 112 5.0 10.0 0.00 0.04 0.01 43 1040.3
20260831225503 67 109 6.0 12.0 0.00 0.04 0.01 43 1040.5
20260831225003 67 110 8.0 13.0 0.00 0.04 0.01 42 1040.4
20260831224503 68 113 7.0 13.0 0.00 0.04 0.01 42 1040.3
20260831224003 69 119 5.0 10.0 0.00 0.04 0.01 42 1040.5
20260831223720 68 121 4.0 9.0 0.00 0.04 0.01 41 1040.6
20260831223003 68 128 4.0 10.0 0.00 0.04 0.01 41 1040.7
20260831222503 69 150 4.0 10.0 0.00 0.04 0.01 39 1040.8
20260831222003 69 182 3.0 9.0 0.00 0.04 0.01 38 1040.9
20260831221722 69 129 4.0 12.0 0.00 0.04 0.01 39 1041.0
20260831221003 70 113 8.0 16.0 0.00 0.04 0.01 37 1041.2
20260831220503 71 127 4.0 12.0 0.00 0.04 0.01 36 1041.1
20260831220003 72 244 2.0 8.0 0.00 0.04 0.01 38 1041.1
20260831215503 70 204 2.0 7.0 0.00 0.04 0.01 39 1041.1
20260831215003 69 179 2.0 7.0 0.00 0.04 0.01 39 1041.3
20260831214720 69 145 3.0 9.0 0.00 0.04 0.01 40 1041.2
20260831214003 69 140 3.0 9.0 0.00 0.04 0.01 41 1041.3
20260831213503 68 239 2.0 5.0 0.00 0.04 0.01 40 1041.4
20260831213004 68 230 2.0 6.0 0.00 0.04 0.01 40 1041.5
20260831212503 67 214 2.0 6.0 0.00 0.04 0.01 42 1041.5
20260831212003 67 266 2.0 4.0 0.00 0.04 0.01 42 1041.6
20260831211503 67 254 2.0 4.0 0.00 0.04 0.01 45 1041.7
20260831211220 67 238 2.0 5.0 0.00 0.04 0.01 44 1041.8
20260831210503 67 213 2.0 5.0 0.00 0.04 0.01 43 1041.8
20260831210004 67 139 2.0 4.0 0.00 0.04 0.01 44 1041.7
20260831205503 67 148 2.0 7.0 0.00 0.04 0.01 44 1041.8
20260831205217 67 165 3.0 7.0 0.00 0.04 0.01 43 1041.8
20260831204503 67 263 3.0 8.0 0.00 0.04 0.01 43 1041.9
20260831204003 67 313 3.0 8.0 0.00 0.04 0.01 44 1041.8
20260831203503 67 291 5.0 13.0 0.00 0.04 0.01 42 1041.9
20260831203004 67 258 4.0 13.0 0.00 0.04 0.01 43 1041.9
20260831202503 67 227 3.0 10.0 0.00 0.04 0.01 45 1042.1
20260831202003 67 245 2.0 6.0 0.00 0.04 0.01 43 1042.2
20260831201503 67 259 2.0 6.0 0.00 0.04 0.01 45 1042.2
20260831201003 66 260 3.0 8.0 0.00 0.04 0.01 45 1042.3
20260831200503 66 260 3.0 8.0 0.00 0.08 0.01 46 1042.5
20260831200003 66 254 3.0 8.0 0.00 0.24 0.01 48 1042.7
20260831195503 66 238 3.0 7.0 0.00 0.29 0.01 45 1042.7
20260831195003 65 229 3.0 9.0 0.00 0.29 0.01 48 1042.8
20260831194503 65 272 4.0 9.0 0.00 0.29 0.01 47 1042.7
20260831194003 66 291 4.0 9.0 0.00 0.29 0.01 46 1042.7
20260831193503 66 238 3.0 9.0 0.00 0.29 0.01 46 1042.9
20260831193016 65 152 3.0 10.0 0.00 0.29 0.01 50 1042.9
20260831192718 65 131 3.0 10.0 0.00 0.29 0.01 50 1042.9
20260831192003 64 123 3.0 7.0 0.00 0.29 0.01 52 1043.1
20260831191719 64 140 3.0 7.0 0.00 0.29 0.01 52 1043.0
20260831191003 64 167 3.0 7.0 0.00 0.29 0.01 53 1043.2
20260831190503 63 143 4.0 8.0 0.00 0.29 0.01 55 1043.3
20260831190004 62 177 3.0 8.0 0.00 0.29 0.01 55 1043.4
20260831185503 62 221 3.0 8.0 0.00 0.29 0.01 55 1043.4
20260831185003 62 237 3.0 8.0 0.00 0.29 0.01 57 1043.4
20260831184503 62 162 4.0 12.0 0.00 0.29 0.01 57 1043.4
20260831184004 62 144 4.0 12.0 0.00 0.29 0.01 57 1043.5
20260831183717 61 162 4.0 9.0 0.00 0.29 0.01 57 1043.7
20260831183003 61 196 2.0 7.0 0.00 0.29 0.01 59 1043.8
20260831182503 60 158 3.0 8.0 0.00 0.29 0.01 57 1043.9
20260831182003 60 164 3.0 8.0 0.00 0.29 0.01 57 1043.9
20260831181503 60 250 2.0 6.0 0.00 0.29 0.01 58 1044.0
20260831181003 59 289 2.0 7.0 0.00 0.29 0.01 59 1044.0
20260831180504 59 283 3.0 7.0 0.00 0.29 0.01 60 1043.9
20260831180004 58 281 2.0 7.0 0.00 0.29 0.01 63 1044.1
20260831175504 58 279 2.0 6.0 0.00 0.29 0.01 65 1044.1
20260831175003 58 275 3.0 7.0 0.00 0.29 0.01 64 1044.2
20260831174503 58 270 2.0 7.0 0.00 0.29 0.01 65 1044.4
20260831174003 58 272 1.0 4.0 0.00 0.29 0.01 66 1044.4
20260831173503 58 272 2.0 4.0 0.00 0.29 0.01 63 1044.4
20260831173003 58 260 2.0 4.0 0.00 0.29 0.01 62 1044.4
20260831172503 58 253 2.0 3.0 0.00 0.29 0.01 64 1044.4
20260831172003 58 253 2.0 3.0 0.00 0.29 0.01 63 1044.2
20260831171503 57 249 2.0 4.0 0.00 0.29 0.01 65 1044.2
20260831171003 57 269 2.0 5.0 0.00 0.29 0.01 62 1044.3
20260831170503 57 290 3.0 5.0 0.00 0.29 0.01 62 1044.3
20260831170004 57 269 3.0 6.0 0.00 0.29 0.01 60 1044.2
20260831165503 58 277 3.0 6.0 0.00 0.29 0.01 62 1044.3
20260831165003 58 278 3.0 6.0 0.00 0.29 0.01 61 1044.4
20260831164503 58 253 3.0 6.0 0.00 0.29 0.01 59 1044.4
20260831164003 58 265 3.0 7.0 0.00 0.29 0.01 59 1044.3
20260831163503 58 263 3.0 7.0 0.00 0.29 0.01 59 1044.2
20260831163004 58 265 3.0 7.0 0.00 0.29 0.01 60 1044.2
20260831162503 58 272 3.0 7.0 0.00 0.29 0.01 60 1044.0
20260831162003 58 258 3.0 7.0 0.00 0.29 0.01 60 1044.0
20260831161503 58 253 3.0 7.0 0.00 0.29 0.01 59 1043.9
20260831161003 58 260 4.0 7.0 0.00 0.29 0.01 60 1043.9
20260831160503 58 267 4.0 7.0 0.00 0.29 0.01 59 1043.8
20260831160004 58 272 4.0 7.0 0.00 0.29 0.01 59 1043.8
20260831155503 58 264 3.0 8.0 0.00 0.29 0.01 60 1043.8
20260831155220 58 258 4.0 8.0 0.00 0.29 0.01 59 1043.8
20260831154503 58 259 3.0 8.0 0.00 0.29 0.01 58 1043.7
20260831154003 58 284 2.0 6.0 0.00 0.29 0.01 58 1043.7
20260831153503 58 283 2.0 6.0 0.00 0.29 0.01 59 1043.6
20260831153003 58 272 2.0 4.0 0.00 0.29 0.01 57 1043.5
20260831152503 58 271 1.0 3.0 0.00 0.29 0.01 58 1043.5
20260831152003 58 267 1.0 4.0 0.00 0.29 0.01 58 1043.5
20260831151503 58 270 2.0 4.0 0.00 0.29 0.01 59 1043.5
20260831151003 58 273 2.0 4.0 0.00 0.29 0.01 58 1043.6
20260831150503 59 266 2.0 4.0 0.00 0.29 0.01 55 1043.4
20260831150003 59 256 2.0 4.0 0.00 0.29 0.01 56 1043.4
20260831145718 59 266 2.0 4.0 0.00 0.29 0.01 55 1043.3
20260831145221 59 269 2.0 4.0 0.00 0.29 0.01 56 1043.2
20260831144503 58 246 2.0 3.0 0.00 0.29 0.01 57 1043.1
20260831144003 58 242 1.0 3.0 0.00 0.29 0.01 59 1043.0
20260831143503 58 236 1.0 3.0 0.00 0.29 0.01 57 1043.0
20260831143003 58 217 1.0 4.0 0.00 0.29 0.01 59 1043.0
20260831142503 58 263 2.0 4.0 0.00 0.29 0.01 57 1043.0
20260831142219 58 285 2.0 4.0 0.00 0.29 0.01 58 1043.0
20260831141504 57 284 3.0 8.0 0.00 0.29 0.01 57 1042.9
20260831141003 57 270 3.0 8.0 0.00 0.29 0.01 57 1042.9
20260831140503 57 268 3.0 7.0 0.00 0.29 0.01 58 1042.9
20260831140003 57 270 2.0 7.0 0.00 0.29 0.01 58 1043.0
20260831135719 57 266 2.0 7.0 0.00 0.29 0.01 58 1043.0
20260831135003 57 257 3.0 7.0 0.00 0.29 0.01 58 1042.7
20260831134503 57 256 3.0 7.0 0.00 0.29 0.01 59 1042.6
20260831134217 56 260 3.0 7.0 0.00 0.29 0.01 59 1042.6
20260831133503 56 267 2.0 6.0 0.00 0.29 0.01 61 1042.7
20260831133003 55 291 2.0 4.0 0.00 0.29 0.01 62 1042.6
20260831132503 54 338 1.0 4.0 0.00 0.29 0.01 63 1042.6
20260831132003 54 70 0.0 3.0 0.00 0.29 0.01 64 1042.5
20260831131503 54 91 1.0 4.0 0.00 0.29 0.01 64 1042.5
20260831131003 54 59 1.0 4.0 0.00 0.29 0.01 65 1042.4
20260831130503 54 311 1.0 5.0 0.00 0.29 0.01 65 1042.3
20260831130004 54 308 2.0 5.0 0.00 0.29 0.01 66 1042.2
20260831125503 53 309 2.0 5.0 0.00 0.29 0.01 66 1042.2
20260831125003 53 309 1.0 4.0 0.00 0.29 0.01 68 1042.0
20260831124503 52 243 0.0 2.0 0.00 0.29 0.01 68 1042.0
20260831124003 52 243 0.0 1.0 0.00 0.29 0.01 68 1041.9
20260831123503 52 242 0.0 1.0 0.00 0.29 0.01 68 1041.8
20260831123003 52 242 0.0 1.0 0.00 0.29 0.01 68 1041.9
20260831122503 53 240 0.0 3.0 0.00 0.29 0.01 68 1041.8
20260831122003 53 240 1.0 3.0 0.00 0.29 0.01 68 1041.8
20260831121503 54 240 0.0 3.0 0.00 0.29 0.01 66 1041.8
20260831121003 54 240 0.0 2.0 0.00 0.29 0.01 63 1041.8
20260831120503 54 240 0.0 2.0 0.00 0.29 0.01 62 1041.8
20260831120003 54 240 0.0 1.0 0.00 0.29 0.01 62 1041.7
20260831115503 54 217 1.0 5.0 0.00 0.29 0.01 63 1041.6
20260831115003 54 262 2.0 5.0 0.00 0.29 0.01 63 1041.6
20260831114503 54 285 2.0 4.0 0.00 0.29 0.01 63 1041.5
20260831114003 54 300 3.0 7.0 0.00 0.29 0.01 65 1041.3
20260831113503 53 296 2.0 7.0 0.00 0.29 0.01 65 1041.3
20260831113220 53 212 2.0 7.0 0.00 0.29 0.01 66 1041.3
20260831112718 53 161 1.0 4.0 0.00 0.29 0.01 67 1041.5
20260831112221 53 156 0.0 3.0 0.00 0.29 0.01 67 1041.5
20260831111719 52 156 1.0 2.0 0.00 0.29 0.01 67 1041.5
20260831111216 52 156 1.0 3.0 0.00 0.29 0.01 68 1041.5
20260831110503 52 157 1.0 3.0 0.00 0.29 0.01 69 1041.5
20260831110003 52 157 1.0 2.0 0.00 0.29 0.01 70 1041.5
20260831105503 52 157 1.0 2.0 0.00 0.29 0.01 68 1041.5
20260831105003 52 157 1.0 2.0 0.00 0.29 0.01 69 1041.5
20260831104503 52 157 1.0 3.0 0.00 0.29 0.01 68 1041.4
20260831104003 53 156 1.0 3.0 0.00 0.29 0.01 68 1041.5
20260831103503 53 155 1.0 2.0 0.00 0.29 0.01 68 1041.7
20260831103003 53 155 1.0 2.0 0.00 0.29 0.01 67 1041.5
20260831102503 53 161 1.0 3.0 0.00 0.29 0.01 67 1041.5
20260831102003 53 187 1.0 3.0 0.00 0.29 0.01 68 1041.5
20260831101504 53 247 1.0 3.0 0.00 0.29 0.01 68 1041.6
20260831101003 52 269 2.0 10.0 0.01 0.29 0.01 68 1041.6
20260831100720 52 279 2.0 10.0 0.01 0.29 0.01 69 1041.5
20260831100003 52 306 2.0 4.0 0.01 0.29 0.01 71 1041.5
20260831095503 52 306 1.0 4.0 0.01 0.29 0.01 69 1041.4
20260831095003 52 302 1.0 3.0 0.01 0.29 0.01 70 1041.5
20260831094503 53 302 1.0 3.0 0.01 0.29 0.01 68 1041.5
20260831094003 53 302 0.0 2.0 0.01 0.29 0.01 66 1041.5
20260831093503 53 302 0.0 2.0 0.01 0.29 0.01 66 1041.5
20260831093003 53 302 0.0 2.0 0.01 0.29 0.01 67 1041.3
20260831092503 54 302 0.0 1.0 0.01 0.29 0.01 67 1041.3
20260831092003 54 300 0.0 3.0 0.01 0.29 0.01 66 1041.3
20260831091503 54 298 1.0 4.0 0.01 0.29 0.01 64 1041.3
20260831091218 55 298 2.0 4.0 0.00 0.28 0.00 64 1041.3
20260831090503 55 304 2.0 6.0 0.00 0.28 0.00 63 1041.3
20260831090004 55 308 3.0 9.0 0.00 0.28 0.00 63 1041.3
20260831085503 55 304 3.0 9.0 0.00 0.28 0.00 63 1041.3
20260831085003 55 280 4.0 12.0 0.00 0.28 0.00 64 1041.2
20260831084718 55 269 5.0 12.0 0.00 0.28 0.00 63 1041.1
20260831084003 55 274 6.0 12.0 0.00 0.28 0.00 63 1041.0
20260831083503 55 291 5.0 12.0 0.00 0.28 0.00 63 1041.0
20260831083003 55 298 5.0 11.0 0.00 0.28 0.00 62 1041.1
20260831082503 55 302 5.0 11.0 0.00 0.28 0.00 63 1041.1